| time (UTC) | temp F | wind direction | speed MPH | gust MPH | rain 1hr in | rain 24hr in | rain mn in | humidity % | barometer mb |
| 20260906082613 | 87 | 68 | 2.0 | 6.0 | 0.00 | 0.00 | 0.00 | 63 | 1022.3 |
| 20260906081611 | 85 | 357 | 1.0 | 4.0 | 0.00 | 0.00 | 0.00 | 63 | 1022.4 |
| 20260906080612 | 85 | 44 | 1.0 | 4.0 | 0.00 | 0.00 | 0.00 | 67 | 1022.2 |
| 20260906075611 | 83 | 53 | 1.0 | 6.0 | 0.00 | 0.00 | 0.00 | 74 | 1022.0 |
| 20260906074632 | 83 | 27 | 3.0 | 8.0 | 0.00 | 0.00 | 0.00 | 74 | 1022.0 |
| 20260906073612 | 84 | 65 | 3.0 | 11.0 | 0.00 | 0.00 | 0.00 | 75 | 1022.0 |
| 20260906072612 | 82 | 64 | 2.0 | 6.0 | 0.00 | 0.00 | 0.00 | 77 | 1021.8 |
| 20260906071611 | 81 | 35 | 2.0 | 6.0 | 0.00 | 0.00 | 0.00 | 78 | 1021.8 |
| 20260906070611 | 78 | 286 | 4.0 | 12.0 | 0.00 | 0.00 | 0.00 | 82 | 1021.8 |
| 20260906065611 | 78 | 8 | 2.0 | 6.0 | 0.00 | 0.00 | 0.00 | 83 | 1021.7 |
| 20260906064632 | 77 | 331 | 2.0 | 6.0 | 0.00 | 0.00 | 0.00 | 83 | 1021.6 |
| 20260906063612 | 77 | 288 | 2.0 | 6.0 | 0.00 | 0.00 | 0.00 | 83 | 1021.5 |
| 20260906062612 | 76 | 31 | 1.0 | 4.0 | 0.00 | 0.00 | 0.00 | 84 | 1021.5 |
| 20260906061612 | 75 | 283 | 2.0 | 8.0 | 0.00 | 0.00 | 0.00 | 86 | 1021.4 |
| 20260906060632 | 74 | 273 | 2.0 | 6.0 | 0.00 | 0.00 | 0.00 | 87 | 1021.3 |
| 20260906055611 | 74 | 340 | 1.0 | 6.0 | 0.00 | 0.00 | 0.00 | 88 | 1021.2 |
| 20260906054611 | 73 | 283 | 3.0 | 8.0 | 0.00 | 0.00 | 0.00 | 90 | 1021.1 |
| 20260906053611 | 73 | 287 | 2.0 | 6.0 | 0.00 | 0.00 | 0.00 | 90 | 1020.9 |
| 20260906052611 | 73 | 298 | 3.0 | 12.0 | 0.00 | 0.00 | 0.00 | 90 | 1020.9 |
| 20260906051611 | 73 | 245 | 3.0 | 8.0 | 0.00 | 0.00 | 0.00 | 91 | 1020.7 |
| 20260906050631 | 73 | 264 | 3.0 | 8.0 | 0.00 | 0.00 | 0.00 | 91 | 1020.7 |
| 20260906045611 | 73 | 263 | 3.0 | 8.0 | 0.00 | 0.00 | 0.00 | 92 | 1020.7 |
| 20260906044611 | 73 | 263 | 2.0 | 8.0 | 0.00 | 0.00 | 0.00 | 92 | 1020.6 |
| 20260906043611 | 73 | 283 | 3.0 | 11.0 | 0.00 | 0.00 | 0.00 | 93 | 1020.5 |
| 20260906042612 | 73 | 306 | 3.0 | 8.0 | 0.00 | 0.00 | 0.00 | 93 | 1020.5 |
| 20260906041611 | 74 | 347 | 2.0 | 6.0 | 0.00 | 0.00 | 0.00 | 94 | 1020.2 |
| 20260906040651 | 74 | 312 | 1.0 | 8.0 | 0.00 | 0.00 | 0.00 | 94 | 1020.2 |
| 20260906035612 | 74 | 331 | 1.0 | 6.0 | 0.00 | 0.00 | 0.00 | 94 | 1020.1 |
| 20260906034632 | 74 | 358 | 1.0 | 11.0 | 0.00 | 0.00 | 0.00 | 94 | 1020.0 |
| 20260906033612 | 74 | 63 | 2.0 | 8.0 | 0.00 | 0.00 | 0.00 | 94 | 1020.0 |
| 20260906032612 | 75 | 64 | 1.0 | 4.0 | 0.00 | 0.00 | 0.00 | 94 | 1019.9 |
| 20260906031611 | 75 | 52 | 2.0 | 6.0 | 0.00 | 0.00 | 0.00 | 94 | 1019.7 |
| 20260906030611 | 75 | 72 | 1.0 | 4.0 | 0.00 | 0.00 | 0.00 | 93 | 1019.8 |
| 20260906025632 | 75 | 326 | 1.0 | 4.0 | 0.00 | 0.00 | 0.00 | 94 | 1019.7 |
| 20260906024632 | 75 | 43 | 2.0 | 6.0 | 0.00 | 0.00 | 0.00 | 93 | 1019.8 |
| 20260906023611 | 75 | 57 | 2.0 | 6.0 | 0.00 | 0.00 | 0.00 | 93 | 1019.8 |
| 20260906022611 | 75 | 65 | 1.0 | 8.0 | 0.00 | 0.00 | 0.00 | 92 | 1019.8 |
| 20260906021612 | 75 | 359 | 2.0 | 11.0 | 0.00 | 0.00 | 0.00 | 92 | 1019.8 |
| 20260906020611 | 75 | 66 | 2.0 | 6.0 | 0.00 | 0.00 | 0.00 | 91 | 1019.6 |
| 20260906015611 | 75 | 74 | 1.0 | 6.0 | 0.00 | 0.00 | 0.00 | 91 | 1019.6 |
| 20260906014631 | 75 | 57 | 1.0 | 6.0 | 0.00 | 0.00 | 0.00 | 90 | 1019.5 |
| 20260906013612 | 75 | 290 | 1.0 | 4.0 | 0.00 | 0.00 | 0.00 | 89 | 1019.4 |
| 20260906012111 | 75 | 62 | 1.0 | 4.0 | 0.00 | 0.00 | 0.00 | 88 | 1019.3 |
| 20260906011111 | 75 | 61 | 1.0 | 4.0 | 0.00 | 0.00 | 0.00 | 88 | 1019.4 |
| 20260906010111 | 75 | 78 | 2.0 | 12.0 | 0.00 | 0.00 | 0.00 | 87 | 1019.3 |
| 20260906005112 | 75 | 84 | 1.0 | 6.0 | 0.00 | 0.00 | 0.00 | 86 | 1019.3 |
| 20260906004113 | 75 | 36 | 2.0 | 6.0 | 0.00 | 0.00 | 0.00 | 86 | 1019.2 |
| 20260906003112 | 75 | 318 | 1.0 | 6.0 | 0.00 | 0.00 | 0.00 | 84 | 1019.4 |
| 20260906002112 | 76 | 77 | 1.0 | 4.0 | 0.00 | 0.00 | 0.00 | 84 | 1019.2 |
| 20260906001112 | 76 | 282 | 2.0 | 8.0 | 0.00 | 0.00 | 0.00 | 83 | 1019.2 |
| 20260906000132 | 76 | 49 | 2.0 | 6.0 | 0.00 | 0.00 | 0.00 | 82 | 1019.1 |
| 20260905235111 | 77 | 320 | 1.0 | 4.0 | 0.00 | 0.00 | 0.00 | 82 | 1019.0 |
| 20260905234112 | 77 | 289 | 1.0 | 4.0 | 0.00 | 0.00 | 0.00 | 82 | 1019.1 |
| 20260905233111 | 78 | 304 | 2.0 | 4.0 | 0.00 | 0.00 | 0.00 | 81 | 1019.1 |
| 20260905232111 | 78 | 289 | 1.0 | 6.0 | 0.00 | 0.00 | 0.00 | 79 | 1019.0 |
| 20260905231112 | 79 | 0.0 | 0.0 | 0.00 | 0.00 | 0.00 | 78 | 1019.0 | |
| 20260905230112 | 79 | 46 | 1.0 | 4.0 | 0.00 | 0.00 | 0.00 | 78 | 1018.9 |
| 20260905225152 | 78 | 42 | 1.0 | 4.0 | 0.00 | 0.00 | 0.00 | 78 | 1018.9 |
| 20260905224112 | 78 | 27 | 1.0 | 4.0 | 0.00 | 0.00 | 0.00 | 78 | 1018.9 |
| 20260905223112 | 78 | 43 | 1.0 | 2.0 | 0.00 | 0.00 | 0.00 | 79 | 1018.7 |
| 20260905222132 | 79 | 93 | 1.0 | 4.0 | 0.00 | 0.00 | 0.00 | 78 | 1018.7 |
| 20260905221112 | 79 | 35 | 1.0 | 2.0 | 0.00 | 0.00 | 0.00 | 78 | 1018.7 |
| 20260905220112 | 79 | 59 | 1.0 | 4.0 | 0.00 | 0.00 | 0.00 | 79 | 1018.6 |
| 20260905215132 | 78 | 25 | 1.0 | 4.0 | 0.00 | 0.00 | 0.00 | 79 | 1018.5 |
| 20260905214131 | 78 | 28 | 1.0 | 4.0 | 0.00 | 0.00 | 0.00 | 80 | 1018.6 |
| 20260905213132 | 78 | 64 | 1.0 | 4.0 | 0.00 | 0.00 | 0.00 | 80 | 1018.4 |
| 20260905212111 | 78 | 61 | 1.0 | 2.0 | 0.00 | 0.00 | 0.00 | 80 | 1018.4 |
| 20260905211112 | 78 | 36 | 2.0 | 4.0 | 0.00 | 0.00 | 0.00 | 80 | 1018.4 |
| 20260905210130 | 79 | 54 | 1.0 | 4.0 | 0.00 | 0.00 | 0.00 | 79 | 1018.3 |
| 20260905205111 | 79 | 52 | 1.0 | 4.0 | 0.00 | 0.00 | 0.00 | 79 | 1018.2 |
| 20260905204111 | 79 | 35 | 1.0 | 4.0 | 0.00 | 0.00 | 0.00 | 79 | 1018.3 |
| 20260905203111 | 79 | 20 | 1.0 | 4.0 | 0.00 | 0.00 | 0.00 | 79 | 1018.2 |
| 20260905202112 | 79 | 49 | 1.0 | 4.0 | 0.00 | 0.00 | 0.00 | 79 | 1018.3 |
| 20260905201152 | 79 | 24 | 1.0 | 4.0 | 0.00 | 0.00 | 0.00 | 79 | 1018.2 |
| 20260905200112 | 79 | 35 | 1.0 | 4.0 | 0.00 | 0.00 | 0.00 | 79 | 1018.1 |
| 20260905195131 | 79 | 61 | 1.0 | 4.0 | 0.00 | 0.00 | 0.00 | 79 | 1018.1 |
| 20260905194111 | 80 | 22 | 1.0 | 4.0 | 0.00 | 0.00 | 0.00 | 79 | 1018.1 |
| 20260905193112 | 80 | 54 | 2.0 | 4.0 | 0.00 | 0.00 | 0.00 | 78 | 1018.1 |
| 20260905192112 | 80 | 77 | 1.0 | 4.0 | 0.00 | 0.00 | 0.00 | 78 | 1017.8 |
| 20260905191112 | 80 | 27 | 2.0 | 6.0 | 0.00 | 0.00 | 0.00 | 78 | 1017.7 |
| 20260905190111 | 81 | 65 | 2.0 | 6.0 | 0.00 | 0.00 | 0.00 | 76 | 1017.7 |
| 20260905185111 | 82 | 36 | 1.0 | 6.0 | 0.00 | 0.00 | 0.00 | 75 | 1017.5 |
| 20260905184111 | 82 | 24 | 1.0 | 4.0 | 0.00 | 0.00 | 0.00 | 74 | 1017.4 |
| 20260905183152 | 82 | 345 | 1.0 | 6.0 | 0.00 | 0.00 | 0.00 | 74 | 1017.3 |
| 20260905182111 | 83 | 93 | 3.0 | 8.0 | 0.00 | 0.00 | 0.00 | 71 | 1017.1 |
| 20260905181111 | 83 | 8 | 2.0 | 8.0 | 0.00 | 0.00 | 0.00 | 69 | 1017.0 |
| 20260905180111 | 83 | 40 | 2.0 | 4.0 | 0.00 | 0.00 | 0.00 | 68 | 1017.0 |
| 20260905175111 | 84 | 310 | 3.0 | 12.0 | 0.00 | 0.00 | 0.00 | 68 | 1016.8 |
| 20260905174111 | 85 | 56 | 2.0 | 6.0 | 0.00 | 0.00 | 0.00 | 67 | 1016.7 |
| 20260905173131 | 86 | 299 | 2.0 | 8.0 | 0.00 | 0.00 | 0.00 | 67 | 1016.5 |
| 20260905172131 | 87 | 60 | 2.0 | 8.0 | 0.00 | 0.00 | 0.00 | 64 | 1016.5 |
| 20260905171111 | 88 | 85 | 2.0 | 6.0 | 0.00 | 0.00 | 0.00 | 61 | 1016.4 |
| 20260905170111 | 89 | 53 | 3.0 | 6.0 | 0.00 | 0.00 | 0.00 | 60 | 1016.3 |
| 20260905165151 | 91 | 66 | 3.0 | 6.0 | 0.00 | 0.00 | 0.00 | 53 | 1016.2 |
| 20260905164111 | 93 | 34 | 0.0 | 2.0 | 0.00 | 0.00 | 0.00 | 38 | 1016.0 |
| 20260905163111 | 93 | 320 | 1.0 | 4.0 | 0.00 | 0.00 | 0.00 | 38 | 1015.9 |
| 20260905162111 | 93 | 285 | 1.0 | 4.0 | 0.00 | 0.00 | 0.00 | 38 | 1015.8 |
| 20260905161131 | 94 | 232 | 2.0 | 6.0 | 0.00 | 0.00 | 0.00 | 38 | 1015.8 |
| 20260905160131 | 94 | 336 | 1.0 | 4.0 | 0.00 | 0.00 | 0.00 | 38 | 1015.8 |
| 20260905155111 | 94 | 29 | 1.0 | 4.0 | 0.00 | 0.00 | 0.00 | 38 | 1015.7 |
| 20260905154111 | 94 | 228 | 3.0 | 8.0 | 0.00 | 0.00 | 0.00 | 38 | 1015.7 |
| 20260905153131 | 93 | 279 | 2.0 | 6.0 | 0.00 | 0.00 | 0.00 | 38 | 1015.6 |
| 20260905152211 | 93 | 258 | 3.0 | 11.0 | 0.00 | 0.00 | 0.00 | 38 | 1015.6 |
| 20260905151132 | 93 | 272 | 3.0 | 11.0 | 0.00 | 0.00 | 0.00 | 38 | 1015.7 |
| 20260905150131 | 94 | 264 | 5.0 | 19.0 | 0.00 | 0.00 | 0.00 | 38 | 1015.7 |
| 20260905145112 | 94 | 272 | 4.0 | 12.0 | 0.00 | 0.00 | 0.00 | 38 | 1015.7 |
| 20260905144112 | 93 | 268 | 4.0 | 16.0 | 0.00 | 0.00 | 0.00 | 38 | 1015.7 |
| 20260905143112 | 93 | 282 | 4.0 | 8.0 | 0.00 | 0.00 | 0.00 | 38 | 1015.8 |
| 20260905142112 | 93 | 285 | 4.0 | 12.0 | 0.00 | 0.00 | 0.00 | 39 | 1015.8 |
| 20260905141111 | 93 | 270 | 2.0 | 8.0 | 0.00 | 0.00 | 0.00 | 39 | 1015.8 |
| 20260905140111 | 92 | 270 | 6.0 | 19.0 | 0.00 | 0.00 | 0.00 | 40 | 1016.0 |
| 20260905135111 | 93 | 288 | 2.0 | 8.0 | 0.00 | 0.00 | 0.00 | 39 | 1016.0 |
| 20260905134131 | 93 | 280 | 3.0 | 11.0 | 0.00 | 0.00 | 0.00 | 40 | 1016.1 |
| 20260905133111 | 92 | 269 | 7.0 | 16.0 | 0.00 | 0.00 | 0.00 | 40 | 1016.3 |
| 20260905132111 | 92 | 268 | 5.0 | 14.0 | 0.00 | 0.00 | 0.00 | 40 | 1016.3 |
| 20260905131111 | 92 | 253 | 7.0 | 19.0 | 0.00 | 0.00 | 0.00 | 39 | 1016.4 |
| 20260905130131 | 92 | 263 | 5.0 | 16.0 | 0.00 | 0.00 | 0.00 | 40 | 1016.5 |
| 20260905125111 | 92 | 252 | 5.0 | 14.0 | 0.00 | 0.00 | 0.00 | 39 | 1016.5 |
| 20260905124112 | 91 | 266 | 6.0 | 14.0 | 0.00 | 0.00 | 0.00 | 40 | 1016.6 |
| 20260905123112 | 91 | 276 | 5.0 | 11.0 | 0.00 | 0.00 | 0.00 | 40 | 1016.7 |
| 20260905122112 | 91 | 257 | 8.0 | 25.0 | 0.00 | 0.00 | 0.00 | 40 | 1016.8 |
| 20260905121111 | 91 | 269 | 5.0 | 14.0 | 0.00 | 0.00 | 0.00 | 38 | 1017.1 |
| 20260905120112 | 91 | 258 | 6.0 | 16.0 | 0.00 | 0.00 | 0.00 | 37 | 1017.2 |
| 20260905115111 | 91 | 268 | 6.0 | 14.0 | 0.00 | 0.00 | 0.00 | 38 | 1017.2 |
| 20260905114111 | 91 | 258 | 9.0 | 19.0 | 0.00 | 0.00 | 0.00 | 37 | 1017.1 |
| 20260905113111 | 90 | 265 | 7.0 | 16.0 | 0.00 | 0.00 | 0.00 | 36 | 1017.2 |
| 20260905112111 | 91 | 271 | 5.0 | 19.0 | 0.00 | 0.00 | 0.00 | 37 | 1017.2 |
| 20260905111111 | 90 | 249 | 6.0 | 14.0 | 0.00 | 0.00 | 0.00 | 38 | 1017.1 |
| 20260905110151 | 90 | 271 | 5.0 | 14.0 | 0.00 | 0.00 | 0.00 | 39 | 1017.1 |
| 20260905105111 | 90 | 289 | 7.0 | 19.0 | 0.00 | 0.00 | 0.00 | 40 | 1017.2 |
| 20260905104131 | 90 | 263 | 5.0 | 14.0 | 0.00 | 0.00 | 0.00 | 40 | 1017.3 |
| 20260905103111 | 89 | 271 | 7.0 | 16.0 | 0.00 | 0.00 | 0.00 | 41 | 1017.2 |
| 20260905102112 | 88 | 266 | 7.0 | 19.0 | 0.00 | 0.00 | 0.00 | 41 | 1017.2 |
| 20260905101111 | 88 | 266 | 8.0 | 22.0 | 0.00 | 0.00 | 0.00 | 44 | 1017.5 |
| 20260905100112 | 88 | 275 | 8.0 | 21.0 | 0.00 | 0.00 | 0.00 | 44 | 1017.4 |
| 20260905095112 | 87 | 254 | 8.0 | 25.0 | 0.00 | 0.00 | 0.00 | 45 | 1017.4 |
| 20260905094112 | 87 | 289 | 4.0 | 11.0 | 0.00 | 0.00 | 0.00 | 46 | 1017.4 |
| 20260905093111 | 86 | 258 | 4.0 | 12.0 | 0.00 | 0.00 | 0.00 | 47 | 1017.4 |
| 20260905092112 | 86 | 274 | 6.0 | 21.0 | 0.00 | 0.00 | 0.00 | 47 | 1017.6 |
| 20260905091152 | 85 | 264 | 6.0 | 19.0 | 0.00 | 0.00 | 0.00 | 50 | 1017.5 |
| 20260905090111 | 84 | 267 | 5.0 | 16.0 | 0.00 | 0.00 | 0.00 | 50 | 1017.5 |
| 20260905085111 | 83 | 275 | 6.0 | 16.0 | 0.00 | 0.00 | 0.00 | 50 | 1017.3 |
| 20260905084111 | 83 | 254 | 7.0 | 14.0 | 0.00 | 0.00 | 0.00 | 51 | 1017.3 |